Home   Weather   Veracruz   Past weeks

Flag for Mexico Past Weather in Veracruz, Veracruz, Mexico — Yesterday and Last 2 Weeks

Now
82 °F

Light rain. More clouds than sun.


Feels Like: 92 °F
Forecast: 77 / 85 °F
Wind: 5 mph from East

Location: Gen. Heriberto Jara

Current Time: May 29, 2017 at 8:32:43 pm

Latest Report: May 29, 2017 at 7:43 pm


Visibility: 5 mi

Pressure: 29.84 "Hg

Humidity: 89%

Dew Point: 79 °F

Location of VeracruzLocation

Past Weather in Veracruz — Graph

°F

Veracruz Temperature Yesterday

Maximum temperature yesterday: 97 °F (at 1:47 pm)
Minimum temperature yesterday: 77 °F (at 5:50 am)
Average temperature yesterday: 85 °F

High & Low Weather Summary for the Past Weeks

 TemperatureHumidityPressure
High97 °F (May 20, 12:43 pm)100% (May 17, 7:43 am)29.95 "Hg (May 17, 7:43 am)
Low75 °F (May 29, 5:46 am)44% (May 28, 1:47 pm)29.57 "Hg (May 19, 6:42 pm)
Average86 °F75%29.77 "Hg
* Reported May 14 6:42 pm — May 29 6:40 pm, Veracruz. Weather by CustomWeather, © 2017

Note: Actual official high and low records may vary slightly from our data, if they occured in-between our weather recording intervals... More about our weather records

Advertising

Veracruz Weather History for the Previous 24 Hours

Scroll right to see more
 ConditionsComfort  
Time TempWeatherWind HumidityBarometerVisibility
6:40 pm
Mon, May 29
84 °FLight rain. Mostly cloudy.5 mph79%29.75 "Hg6 mi
5:46 pm84 °FCloudy.9 mph74%29.82 "Hg7 mi
4:46 pm86 °FCloudy.12 mph70%29.80 "Hg7 mi
3:45 pm91 °FBroken clouds.13 mph52%29.79 "Hg7 mi
2:44 pm90 °FBroken clouds.9 mph59%29.82 "Hg7 mi
1:45 pm88 °FBroken clouds.3 mph62%29.85 "Hg7 mi
12:42 pm84 °FBroken clouds.7 mph70%29.84 "Hg6 mi
11:43 am84 °FMore clouds than sun.7 mph70%29.88 "Hg6 mi
10:43 am82 °FMore clouds than sun.7 mph70%29.89 "Hg6 mi
9:44 am82 °FOvercast.6 mph70%29.84 "Hg6 mi
8:47 am79 °FOvercast.5 mph79%29.88 "Hg6 mi
7:45 am77 °FOvercast.3 mph79%29.85 "Hg6 mi
6:46 am75 °FOvercast.No wind89%29.77 "Hg7 mi
5:46 am75 °FPassing clouds.5 mph89%29.81 "Hg6 mi
10:44 pm
Sun, May 28
79 °FOvercast.3 mph79%29.86 "Hg6 mi
10:18 pm79 °FMostly cloudy.3 mph79%29.86 "Hg6 mi
9:40 pm79 °FLight rain. Mostly cloudy.5 mph79%29.76 "Hg6 mi
9:11 pm81 °FMostly cloudy.3 mph70%29.84 "Hg6 mi
8:46 pm82 °FLight rain. Overcast.5 mph66%29.83 "Hg6 mi
Weather by CustomWeather, © 2017

See weather overviewHow to use our weather pages